Location: Bermeries
(50.2863°N, 3.7551°E)
Time: 10:12:25
(UTC+00:00)

Cosmos 2369 - Pass Details

Date: 23 May 2024
Orbit: 837 x 856 km, 71.0° (Epoch: 14 June)

Event Time Altitude Azimuth Distance (km) Brightness Sun altitude
Rises 01:15:21 0° 325° (NW) 3,429 7.3 -16.1°
Reaches altitude 10° 01:17:59 10° 316° (NW) 2,491 6.4 -15.9°
Maximum altitude 01:23:04 34° 254° (WSW) 1,378 4.5 -15.6°
Enters shadow 01:25:34 24° 210° (SSW) 1,714 4.7 -15.4°
